INTELSAT 33E DEB, 61994

Orbit data source: Space-Track

INTELSAT 33E DEB, 61994 is space debris in GEO originally from a launch on Wed, 24 Aug 2016 UTC launched from the French Guiana (FRGUI). Debris objects in space refer to the collection of defunct objects orbiting the Earth. Examples of debris include non-operational satellites, rocket bodies, and fragments generated from explosions, collisions, or faulty payload assembly.

Not visible in the next 10 days
Identifier
61994, 2016-053L
Orbit
GEO
Country
Flag of UnknownUnknown / ITSO
Related business
Manufacturer
Boeing/ES
Mission
Spacecraft
Bus & Motor
Unknown
Mass
Unknown
Launch date (UTC)
2016-08-24 (9 years ago)
Launch vehicle
Unknown
Launch site
French Guiana (FRGUI)
Object type
Payload
Rocket body
Debris
Shape & HBR
Unknown shape, 1.1 m
Radar Cross Section
RCS unknown

Expand to show TLE details & history
Last TLE update: 7 hours ago

TLE from 7 hours ago
0 INTELSAT 33E DEB
1 61994U 16053L   25291.90370150  .00000078  00000-0  00000-0 0  9993
2 61994   0.9594  89.8169 0025140 202.8205  67.1211  1.00494952  3667
Epoch: 2025-10-18T21:41Z
TLE epoch observation values (Epoch: 2025-10-18T21:41:19.809Z)
Latitude
-0.94397°
Longitude
7.03928°
Altitude
35,682.949 km
Speed
3.08 km/s
True Right ascension
23h 59m 59s
True Declination
0° 56' 35"
Sunlit
Object was in daylight at epoch
Visualization orbit readout
Latitude
Unknown
Longitude
Unknown
Altitude
Unknown
Speed
Unknown
Apparent Right ascension
Unknown
Apparent Declination
Unknown
Sunlit
N/A
Visualization observer readout
Local Sidereal Time
23:54:02
Azimuth
Unknown
Elevation
Unknown
Doppler factor
Unknown
Orbital elements
Apogee altitude
35,831.068 km
Perigee altitude
35,619.373 km
Semi-major axis
42,103.357 km
Eccentricity
0.00251
Inclination
0.9594°
RAAN
89.8169°
Arg. of periapsis
202.8205°
True anomaly
67.38684°
Mean anomaly
67.1211°
Eccentric anomaly
67.25394°
Mean motion
0.25123 °/min
Orbital period
1,432.96 mins
BSTAR
0
Loading maneuver chart data...
Computing Atmospheric mass density...
Loading historical data...
Loading historical data...
Loading historical data...
Loading historical data...
Loading historical data...
Loading historical data...
Loading historical data...

Documentation

Showing up to 5 results
|